Weather History for KRAS - September, 2012

Change the Weather History Date:

Friday, September 14, 2012

  Actual Average (KCRP) Record (KCRP)
Temperature  
Mean Temperature 76 °F 81 °F  
Max Temperature 80 °F 90 °F 98 °F (1993)
Min Temperature 71 °F 73 °F 62 °F (1945)
Degree Days  
Heating Degree Days 0 0  
Month to date heating degree days 0  
Since 1 July heating degree days 0  
Cooling Degree Days 10 16  
Month to date cooling degree days 247  
Year to date cooling degree days 2808  
Growing Degree Days 26 (Base 50)    
Moisture  
Dew Point 71 °F    
Average Humidity 83    
Maximum Humidity 94    
Minimum Humidity 70    
Precipitation  
Precipitation 0.25 in 0.17 in 4.41 in (1910)
Month to date precipitation 2.50  
Year to date precipitation 21.84  
Snow  
Snow 0.00 in - - ()
Month to date snowfall  
Since 1 July snowfall  
Since 1 September snowfall  
Snow Depth -    
Sea Level Pressure  
Sea Level Pressure 30.10 in    
Wind  
Wind Speed 9 mph (NE)    
Max Wind Speed 20 mph    
Max Gust Speed 25 mph    
Visibility 10 miles    
Events Rain , Thunderstorm    
T = Trace of Precipitation, MM = Missing Value Source: NWS Daily Summary

Daily Weather History Graph

Daily Weather History Graph

Search for Another Location

Airport or City:

Trip Planner

Search our weather history database for the weather conditions in past years. The results will help you decide how hot, cold, wet, or windy it might be!

Date:

Astronomy

Sep. 14, 2012 Rise Set
Actual Time 7:13 AM CDT 7:33 PM CDT
Civil Twilight 6:49 AM CDT 7:57 PM CDT
Nautical Twilight 6:22 AM CDT 8:24 PM CDT
Astronomical Twilight 5:54 AM CDT 8:52 PM CDT
Moon 5:43 AM CDT (9/14) 6:30 PM CDT (9/14)
Length of Visible Light 13h 07m
Length of Day
12h 20m
Waning Crescent, 2% of the Moon is Illuminated
Sep 14
Waning Crescent
Sep 15
New
Sep 22
First Quarter
Sep 29
Full
Oct 8
Last Quarter

Hourly Weather History & Observations

Time (CDT) Temp. Heat Index Dew Point Humidity Pressure Visibility Wind Dir Wind Speed Gust Speed Precip Events Conditions
12:15 AM 78.8 °F - 71.6 °F 78% 30.09 in 10.0 mi East 6.9 mph - N/A   Scattered Clouds
12:35 AM 80.6 °F 84.6 °F 71.6 °F 74% 30.10 in 10.0 mi East 15.0 mph 19.6 mph N/A Thunderstorm Mostly Cloudy
12:55 AM 78.8 °F - 71.6 °F 78% 30.09 in 10.0 mi ESE 9.2 mph 19.6 mph N/A   Scattered Clouds
1:15 AM 78.8 °F - 71.6 °F 78% 30.09 in 10.0 mi ESE 11.5 mph - N/A   Mostly Cloudy
1:35 AM 80.6 °F 83.9 °F 69.8 °F 70% 30.09 in 10.0 mi East 9.2 mph - N/A   Scattered Clouds
1:55 AM 78.8 °F - 71.6 °F 78% 30.09 in 10.0 mi East 8.1 mph - N/A   Light Drizzle
2:15 AM 78.8 °F - 71.6 °F 78% 30.08 in 10.0 mi East 9.2 mph - N/A Rain Light Rain
2:35 AM 80.6 °F 85.4 °F 73.4 °F 79% 30.09 in 10.0 mi ESE 8.1 mph - N/A   Scattered Clouds
2:55 AM 80.6 °F 85.4 °F 73.4 °F 79% 30.08 in 10.0 mi East 8.1 mph - N/A   Mostly Cloudy
3:15 AM 80.6 °F 85.4 °F 73.4 °F 79% 30.07 in 10.0 mi ESE 8.1 mph - N/A   Overcast
3:35 AM 80.6 °F 85.4 °F 73.4 °F 79% 30.06 in 10.0 mi East 5.8 mph - N/A   Mostly Cloudy
3:55 AM 80.6 °F 85.4 °F 73.4 °F 79% 30.05 in 10.0 mi East 6.9 mph - N/A   Scattered Clouds
4:15 AM 78.8 °F - 71.6 °F 78% 30.05 in 10.0 mi ENE 8.1 mph - N/A Thunderstorm Clear
4:35 AM 78.8 °F - 69.8 °F 74% 30.04 in 10.0 mi NE 4.6 mph - N/A Thunderstorm Scattered Clouds
4:55 AM 78.8 °F - 69.8 °F 74% 30.05 in 10.0 mi NNE 5.8 mph - N/A Thunderstorm Mostly Cloudy
5:15 AM 78.8 °F - 69.8 °F 74% 30.05 in 10.0 mi NNE 8.1 mph - N/A Thunderstorm Scattered Clouds
5:35 AM 77.0 °F - 69.8 °F 78% 30.05 in 10.0 mi North 9.2 mph - N/A   Scattered Clouds
5:55 AM 77.0 °F - 71.6 °F 83% 30.07 in 10.0 mi NE 3.5 mph - N/A Thunderstorm Thunderstorm
6:15 AM 73.4 °F - 69.8 °F 88% 30.08 in 10.0 mi Calm Calm - N/A Thunderstorm Thunderstorm
6:35 AM 75.2 °F - 71.6 °F 89% 30.09 in 7.0 mi North 10.4 mph - 0.02 in Rain , Thunderstorm Heavy Thunderstorms and Rain
6:55 AM 73.4 °F - 71.6 °F 94% 30.10 in 5.0 mi North 16.1 mph - 0.09 in Rain , Thunderstorm Thunderstorms and Rain
7:15 AM 71.6 °F - 69.8 °F 94% 30.11 in 5.0 mi North 19.6 mph 25.3 mph 0.05 in Rain , Thunderstorm Heavy Thunderstorms and Rain
7:35 AM 71.6 °F - 69.8 °F 94% 30.10 in 10.0 mi North 18.4 mph 23.0 mph 0.08 in Rain Rain
7:55 AM 71.6 °F - 69.8 °F 94% 30.11 in 7.0 mi North 18.4 mph - 0.11 in Rain , Thunderstorm Light Thunderstorms and Rain
8:15 AM 71.6 °F - 69.8 °F 94% 30.12 in 7.0 mi North 12.7 mph 17.3 mph 0.02 in Rain , Thunderstorm Light Thunderstorms and Rain
8:35 AM 71.6 °F - 69.8 °F 94% 30.11 in 7.0 mi North 13.8 mph - 0.04 in Rain , Thunderstorm Light Thunderstorms and Rain
8:55 AM 71.6 °F - 69.8 °F 94% 30.11 in 10.0 mi NNE 12.7 mph 17.3 mph 0.05 in Rain , Thunderstorm Rain
9:15 AM 71.6 °F - 69.8 °F 94% 30.12 in 10.0 mi NNE 13.8 mph 21.9 mph N/A   Scattered Clouds
9:35 AM 71.6 °F - 69.8 °F 94% 30.12 in 10.0 mi NNE 11.5 mph - N/A Thunderstorm Thunderstorm
9:55 AM 71.6 °F - 69.8 °F 94% 30.13 in 10.0 mi North 9.2 mph - N/A Rain , Thunderstorm Light Thunderstorms and Rain
10:15 AM 71.6 °F - 69.8 °F 94% 30.14 in 10.0 mi North 9.2 mph - N/A Rain Light Rain
10:35 AM 73.4 °F - 69.8 °F 88% 30.14 in 10.0 mi North 8.1 mph - N/A Rain , Thunderstorm Light Thunderstorms and Rain
10:55 AM 73.4 °F - 71.6 °F 94% 30.14 in 10.0 mi North 6.9 mph - N/A Rain , Thunderstorm Light Thunderstorms and Rain
11:15 AM 75.2 °F - 71.6 °F 89% 30.15 in 10.0 mi NNE 8.1 mph - N/A Rain Rain
11:35 AM 75.2 °F - 71.6 °F 89% 30.15 in 10.0 mi NNE 5.8 mph - N/A Thunderstorm Drizzle
11:55 AM 77.0 °F - 71.6 °F 83% 30.15 in 10.0 mi NNE 6.9 mph - N/A Thunderstorm Overcast
12:15 PM 77.0 °F - 71.6 °F 83% 30.14 in 10.0 mi North 8.1 mph - N/A   Mostly Cloudy
12:35 PM 77.0 °F - 73.4 °F 89% 30.15 in 10.0 mi North 8.1 mph - N/A Thunderstorm Overcast
12:55 PM 77.0 °F - 73.4 °F 89% 30.14 in 10.0 mi North 6.9 mph - N/A   Overcast
1:15 PM 77.0 °F - 73.4 °F 89% 30.13 in 10.0 mi North 6.9 mph - N/A   Mostly Cloudy
1:35 PM 77.0 °F - 73.4 °F 89% 30.12 in 10.0 mi North 4.6 mph - N/A   Overcast
1:55 PM 77.0 °F - 73.4 °F 89% 30.11 in 10.0 mi NNW 5.8 mph - N/A   Overcast
2:15 PM 77.0 °F - 73.4 °F 89% 30.11 in 10.0 mi NE 10.4 mph - N/A Thunderstorm Thunderstorm
2:35 PM 77.0 °F - 69.8 °F 78% 30.10 in 10.0 mi ENE 4.6 mph - N/A   Scattered Clouds
2:55 PM 78.8 °F - 71.6 °F 78% 30.09 in 10.0 mi ESE 5.8 mph - N/A   Clear
3:15 PM 77.0 °F - 71.6 °F 83% 30.08 in 10.0 mi ESE 3.5 mph - N/A   Clear
3:35 PM 77.0 °F - 69.8 °F 78% 30.08 in 10.0 mi ESE 4.6 mph - N/A   Scattered Clouds
3:55 PM 78.8 °F - 71.6 °F 78% 30.07 in 10.0 mi Calm Calm - N/A Rain Light Rain
4:15 PM 78.8 °F - 69.8 °F 74% 30.06 in 10.0 mi Calm Calm - N/A   Light Drizzle
4:35 PM 78.8 °F - 69.8 °F 74% 30.07 in 10.0 mi Calm Calm - N/A   Clear
4:55 PM 78.8 °F - 71.6 °F 78% 30.07 in 10.0 mi ENE 6.9 mph - N/A   Clear
5:15 PM 78.8 °F - 71.6 °F 78% 30.06 in 10.0 mi NE 11.5 mph - N/A   Clear
5:35 PM 78.8 °F - 71.6 °F 78% 30.06 in 10.0 mi NE 13.8 mph - N/A   Clear
5:55 PM 78.8 °F - 71.6 °F 78% 30.06 in 10.0 mi ENE 10.4 mph - N/A   Clear
6:15 PM 78.8 °F - 71.6 °F 78% 30.07 in 10.0 mi ENE 12.7 mph - N/A   Clear
6:35 PM 78.8 °F - 71.6 °F 78% 30.07 in 10.0 mi NE 10.4 mph - N/A   Clear
6:55 PM 78.8 °F - 71.6 °F 78% 30.07 in 10.0 mi NE 10.4 mph - N/A   Clear
7:15 PM 78.8 °F - 71.6 °F 78% 30.08 in 10.0 mi NE 11.5 mph - N/A   Clear
7:35 PM 78.8 °F - 71.6 °F 78% 30.08 in 10.0 mi NNE 11.5 mph - N/A   Clear
7:55 PM 77.0 °F - 69.8 °F 78% 30.08 in 10.0 mi NE 11.5 mph - N/A   Clear
8:15 PM 77.0 °F - 71.6 °F 83% 30.09 in 10.0 mi North 12.7 mph - N/A   Clear
8:35 PM 77.0 °F - 71.6 °F 83% 30.09 in 10.0 mi NNE 11.5 mph - N/A   Clear
8:55 PM 77.0 °F - 71.6 °F 83% 30.10 in 10.0 mi NNE 12.7 mph 17.3 mph N/A   Clear
9:15 PM 77.0 °F - 69.8 °F 78% 30.11 in 10.0 mi NNE 11.5 mph - N/A   Clear
9:35 PM 77.0 °F - 71.6 °F 83% 30.12 in 10.0 mi NNE 10.4 mph - N/A   Clear
9:55 PM 77.0 °F - 71.6 °F 83% 30.12 in 10.0 mi NNE 12.7 mph - N/A   Clear
10:15 PM 77.0 °F - 71.6 °F 83% 30.12 in 10.0 mi NNE 11.5 mph - N/A   Clear
10:35 PM 75.2 °F - 71.6 °F 89% 30.12 in 10.0 mi NNE 10.4 mph 16.1 mph N/A   Clear
10:55 PM 75.2 °F - 71.6 °F 89% 30.12 in 10.0 mi North 10.4 mph - N/A   Clear
11:35 PM 75.2 °F - 71.6 °F 89% 30.12 in 10.0 mi NNE 10.4 mph - N/A   Clear
11:55 PM 75.2 °F - 71.6 °F 89% 30.13 in 10.0 mi NNE 12.7 mph - N/A   Clear